owner,sensor,date,latitude,longitude,air_pressure(mBar),qcFlag 
WAVCIS,ioos:station:WAVCIS:CSI16:1,2010-07-01T00:00:00Z,29.4012,-89.0355,1012.92,11111222 
WAVCIS,ioos:station:WAVCIS:CSI16:1,2010-07-01T01:00:00Z,29.4012,-89.0355,1012.66,11111222 
WAVCIS,ioos:station:WAVCIS:CSI16:1,2010-07-01T02:00:00Z,29.4012,-89.0355,1013.5,11111222 
WAVCIS,ioos:station:WAVCIS:CSI16:1,2010-07-01T03:00:00Z,29.4012,-89.0355,1014.35,11111222 
WAVCIS,ioos:station:WAVCIS:CSI16:1,2010-07-01T04:00:00Z,29.4012,-89.0355,1013.43,11111222 
WAVCIS,ioos:station:WAVCIS:CSI16:1,2010-07-01T05:00:00Z,29.4012,-89.0355,1013.52,11111222 
WAVCIS,ioos:station:WAVCIS:CSI16:1,2010-07-01T06:00:00Z,29.4012,-89.0355,1013.62,11111222 
WAVCIS,ioos:station:WAVCIS:CSI16:1,2010-07-01T07:00:00Z,29.4012,-89.0355,1013.25,11111222 
WAVCIS,ioos:station:WAVCIS:CSI16:1,2010-07-01T08:00:00Z,29.4012,-89.0355,1012.99,11111222 
WAVCIS,ioos:station:WAVCIS:CSI16:1,2010-07-01T09:00:00Z,29.4012,-89.0355,1013.17,11111222 
WAVCIS,ioos:station:WAVCIS:CSI16:1,2010-07-01T10:00:00Z,29.4012,-89.0355,1013.18,11111222 
WAVCIS,ioos:station:WAVCIS:CSI16:1,2010-07-01T11:00:00Z,29.4012,-89.0355,1013.48,11111222 
WAVCIS,ioos:station:WAVCIS:CSI16:1,2010-07-01T12:00:00Z,29.4012,-89.0355,1014.0,11111222 
WAVCIS,ioos:station:WAVCIS:CSI16:1,2010-07-01T13:00:00Z,29.4012,-89.0355,1014.01,11111222 
WAVCIS,ioos:station:WAVCIS:CSI16:1,2010-07-01T14:00:00Z,29.4012,-89.0355,1014.68,11111222 
WAVCIS,ioos:station:WAVCIS:CSI16:1,2010-07-01T15:00:00Z,29.4012,-89.0355,1015.52,11111222 
WAVCIS,ioos:station:WAVCIS:CSI16:1,2010-07-01T16:00:00Z,29.4012,-89.0355,1016.06,11111222 
WAVCIS,ioos:station:WAVCIS:CSI16:1,2010-07-01T17:00:00Z,29.4012,-89.0355,1015.81,11111222 
WAVCIS,ioos:station:WAVCIS:CSI16:1,2010-07-01T18:00:00Z,29.4012,-89.0355,1015.35,11111222 
WAVCIS,ioos:station:WAVCIS:CSI16:1,2010-07-01T19:00:00Z,29.4012,-89.0355,1015.25,11111222 
WAVCIS,ioos:station:WAVCIS:CSI16:1,2010-07-01T20:00:00Z,29.4012,-89.0355,1015.64,11111222 
WAVCIS,ioos:station:WAVCIS:CSI16:1,2010-07-01T21:00:00Z,29.4012,-89.0355,1015.42,11111222 
WAVCIS,ioos:station:WAVCIS:CSI16:1,2010-07-01T22:00:00Z,29.4012,-89.0355,1015.26,11111222 
WAVCIS,ioos:station:WAVCIS:CSI16:1,2010-07-01T23:00:00Z,29.4012,-89.0355,1015.01,11111222 
WAVCIS,ioos:station:WAVCIS:CSI16:1,2010-07-02T00:00:00Z,29.4012,-89.0355,1014.79,11111222 
WAVCIS,ioos:station:WAVCIS:CSI16:1,2010-07-02T01:00:00Z,29.4012,-89.0355,1014.98,11111222 
WAVCIS,ioos:station:WAVCIS:CSI16:1,2010-07-02T02:00:00Z,29.4012,-89.0355,1014.94,11111222 
WAVCIS,ioos:station:WAVCIS:CSI16:1,2010-07-02T03:00:00Z,29.4012,-89.0355,1015.19,11111222 
WAVCIS,ioos:station:WAVCIS:CSI16:1,2010-07-02T04:00:00Z,29.4012,-89.0355,1015.45,11111222 
WAVCIS,ioos:station:WAVCIS:CSI16:1,2010-07-02T05:00:00Z,29.4012,-89.0355,1015.37,11111222 
WAVCIS,ioos:station:WAVCIS:CSI16:1,2010-07-02T06:00:00Z,29.4012,-89.0355,1014.86,11111222 
WAVCIS,ioos:station:WAVCIS:CSI16:1,2010-07-02T07:00:00Z,29.4012,-89.0355,1014.46,11111222 
WAVCIS,ioos:station:WAVCIS:CSI16:1,2010-07-02T08:00:00Z,29.4012,-89.0355,1014.4,11111222 
WAVCIS,ioos:station:WAVCIS:CSI16:1,2010-07-02T09:00:00Z,29.4012,-89.0355,1014.49,11111222 
WAVCIS,ioos:station:WAVCIS:CSI16:1,2010-07-02T10:00:00Z,29.4012,-89.0355,1014.49,11111222 
WAVCIS,ioos:station:WAVCIS:CSI16:1,2010-07-02T11:00:00Z,29.4012,-89.0355,1014.72,11111222 
WAVCIS,ioos:station:WAVCIS:CSI16:1,2010-07-02T12:00:00Z,29.4012,-89.0355,1014.65,11111222 
WAVCIS,ioos:station:WAVCIS:CSI16:1,2010-07-02T13:00:00Z,29.4012,-89.0355,1014.85,11111222 
WAVCIS,ioos:station:WAVCIS:CSI16:1,2010-07-02T14:00:00Z,29.4012,-89.0355,1015.23,11111222 
WAVCIS,ioos:station:WAVCIS:CSI16:1,2010-07-02T15:00:00Z,29.4012,-89.0355,1015.75,11111222 
WAVCIS,ioos:station:WAVCIS:CSI16:1,2010-07-02T16:00:00Z,29.4012,-89.0355,1015.93,11111222 
WAVCIS,ioos:station:WAVCIS:CSI16:1,2010-07-02T17:00:00Z,29.4012,-89.0355,1016.09,11111222 
WAVCIS,ioos:station:WAVCIS:CSI16:1,2010-07-02T18:00:00Z,29.4012,-89.0355,1015.93,11111222 
WAVCIS,ioos:station:WAVCIS:CSI16:1,2010-07-02T19:00:00Z,29.4012,-89.0355,1015.63,11111222 
WAVCIS,ioos:station:WAVCIS:CSI16:1,2010-07-02T20:00:00Z,29.4012,-89.0355,1015.31,11111222 
WAVCIS,ioos:station:WAVCIS:CSI16:1,2010-07-02T21:00:00Z,29.4012,-89.0355,1014.73,11111222 
WAVCIS,ioos:station:WAVCIS:CSI16:1,2010-07-02T22:00:00Z,29.4012,-89.0355,1014.11,11111222 
WAVCIS,ioos:station:WAVCIS:CSI16:1,2010-07-02T23:00:00Z,29.4012,-89.0355,1013.87,11111222 
WAVCIS,ioos:station:WAVCIS:CSI16:1,2010-07-03T00:00:00Z,29.4012,-89.0355,1013.58,11111222 
WAVCIS,ioos:station:WAVCIS:CSI16:1,2010-07-03T01:00:00Z,29.4012,-89.0355,1013.73,11111222 
WAVCIS,ioos:station:WAVCIS:CSI16:1,2010-07-03T02:00:00Z,29.4012,-89.0355,1013.97,11111222 
WAVCIS,ioos:station:WAVCIS:CSI16:1,2010-07-03T03:00:00Z,29.4012,-89.0355,1014.23,11111222 
WAVCIS,ioos:station:WAVCIS:CSI16:1,2010-07-03T04:00:00Z,29.4012,-89.0355,1014.13,11111222 
WAVCIS,ioos:station:WAVCIS:CSI16:1,2010-07-03T05:00:00Z,29.4012,-89.0355,1014.0,11111222 
WAVCIS,ioos:station:WAVCIS:CSI16:1,2010-07-03T06:00:00Z,29.4012,-89.0355,1013.54,11111222 
WAVCIS,ioos:station:WAVCIS:CSI16:1,2010-07-03T07:00:00Z,29.4012,-89.0355,1012.75,11111222 
WAVCIS,ioos:station:WAVCIS:CSI16:1,2010-07-03T08:00:00Z,29.4012,-89.0355,1012.28,11111222 
WAVCIS,ioos:station:WAVCIS:CSI16:1,2010-07-03T09:00:00Z,29.4012,-89.0355,1012.0,11111222 
WAVCIS,ioos:station:WAVCIS:CSI16:1,2010-07-03T10:00:00Z,29.4012,-89.0355,1012.29,11111222 
WAVCIS,ioos:station:WAVCIS:CSI16:1,2010-07-03T11:00:00Z,29.4012,-89.0355,1012.5,11111222 
WAVCIS,ioos:station:WAVCIS:CSI16:1,2010-07-03T12:00:00Z,29.4012,-89.0355,1012.75,11111222 
WAVCIS,ioos:station:WAVCIS:CSI16:1,2010-07-03T13:00:00Z,29.4012,-89.0355,1013.58,11111222 
WAVCIS,ioos:station:WAVCIS:CSI16:1,2010-07-03T14:00:00Z,29.4012,-89.0355,1013.92,11111222 
WAVCIS,ioos:station:WAVCIS:CSI16:1,2010-07-03T15:00:00Z,29.4012,-89.0355,1013.92,11111222 
WAVCIS,ioos:station:WAVCIS:CSI16:1,2010-07-03T16:00:00Z,29.4012,-89.0355,1013.69,11111222 
WAVCIS,ioos:station:WAVCIS:CSI16:1,2010-07-03T17:00:00Z,29.4012,-89.0355,1013.67,11111222 
WAVCIS,ioos:station:WAVCIS:CSI16:1,2010-07-03T18:00:00Z,29.4012,-89.0355,1013.45,11111222 
WAVCIS,ioos:station:WAVCIS:CSI16:1,2010-07-03T19:00:00Z,29.4012,-89.0355,1013.16,11111222 
WAVCIS,ioos:station:WAVCIS:CSI16:1,2010-07-03T20:00:00Z,29.4012,-89.0355,1012.85,11111222 
WAVCIS,ioos:station:WAVCIS:CSI16:1,2010-07-03T21:00:00Z,29.4012,-89.0355,1012.6,11111222 
WAVCIS,ioos:station:WAVCIS:CSI16:1,2010-07-03T22:00:00Z,29.4012,-89.0355,1012.68,11111222 
WAVCIS,ioos:station:WAVCIS:CSI16:1,2010-07-03T23:00:00Z,29.4012,-89.0355,1012.38,11111222 
WAVCIS,ioos:station:WAVCIS:CSI16:1,2010-07-04T00:00:00Z,29.4012,-89.0355,1012.56,11111222 
WAVCIS,ioos:station:WAVCIS:CSI16:1,2010-07-04T01:00:00Z,29.4012,-89.0355,1012.16,11111222 
WAVCIS,ioos:station:WAVCIS:CSI16:1,2010-07-04T02:00:00Z,29.4012,-89.0355,1012.33,11111222 
WAVCIS,ioos:station:WAVCIS:CSI16:1,2010-07-04T03:00:00Z,29.4012,-89.0355,1012.48,11111222 
WAVCIS,ioos:station:WAVCIS:CSI16:1,2010-07-04T04:00:00Z,29.4012,-89.0355,1012.81,11111222 
WAVCIS,ioos:station:WAVCIS:CSI16:1,2010-07-04T05:00:00Z,29.4012,-89.0355,1012.88,11111222 
WAVCIS,ioos:station:WAVCIS:CSI16:1,2010-07-04T06:00:00Z,29.4012,-89.0355,1012.38,11111222 
WAVCIS,ioos:station:WAVCIS:CSI16:1,2010-07-04T07:00:00Z,29.4012,-89.0355,1011.92,11111222 
WAVCIS,ioos:station:WAVCIS:CSI16:1,2010-07-04T08:00:00Z,29.4012,-89.0355,1011.55,11111222 
WAVCIS,ioos:station:WAVCIS:CSI16:1,2010-07-04T09:00:00Z,29.4012,-89.0355,1011.38,11111222 
WAVCIS,ioos:station:WAVCIS:CSI16:1,2010-07-04T10:00:00Z,29.4012,-89.0355,1011.39,11111222 
WAVCIS,ioos:station:WAVCIS:CSI16:1,2010-07-04T11:00:00Z,29.4012,-89.0355,1011.76,11111222 
WAVCIS,ioos:station:WAVCIS:CSI16:1,2010-07-04T12:00:00Z,29.4012,-89.0355,1012.02,11111222 
WAVCIS,ioos:station:WAVCIS:CSI16:1,2010-07-04T13:00:00Z,29.4012,-89.0355,1012.29,11111222 
WAVCIS,ioos:station:WAVCIS:CSI16:1,2010-07-04T14:00:00Z,29.4012,-89.0355,1012.57,11111222 
WAVCIS,ioos:station:WAVCIS:CSI16:1,2010-07-04T15:00:00Z,29.4012,-89.0355,1012.55,11111222 
WAVCIS,ioos:station:WAVCIS:CSI16:1,2010-07-04T16:00:00Z,29.4012,-89.0355,1012.78,11111222 
WAVCIS,ioos:station:WAVCIS:CSI16:1,2010-07-04T17:00:00Z,29.4012,-89.0355,1012.93,11111222 
WAVCIS,ioos:station:WAVCIS:CSI16:1,2010-07-04T18:00:00Z,29.4012,-89.0355,1012.57,11111222 
WAVCIS,ioos:station:WAVCIS:CSI16:1,2010-07-04T19:00:00Z,29.4012,-89.0355,1011.85,11111222 
WAVCIS,ioos:station:WAVCIS:CSI16:1,2010-07-04T20:00:00Z,29.4012,-89.0355,1011.74,11111222 
WAVCIS,ioos:station:WAVCIS:CSI16:1,2010-07-04T21:00:00Z,29.4012,-89.0355,1011.31,11111222 
WAVCIS,ioos:station:WAVCIS:CSI16:1,2010-07-04T22:00:00Z,29.4012,-89.0355,1010.97,11111222 
WAVCIS,ioos:station:WAVCIS:CSI16:1,2010-07-04T23:00:00Z,29.4012,-89.0355,1010.92,11111222 
WAVCIS,ioos:station:WAVCIS:CSI16:1,2010-07-05T00:00:00Z,29.4012,-89.0355,1010.9,11111222 
WAVCIS,ioos:station:WAVCIS:CSI16:1,2010-07-05T01:00:00Z,29.4012,-89.0355,1010.95,11111222 
WAVCIS,ioos:station:WAVCIS:CSI16:1,2010-07-05T02:00:00Z,29.4012,-89.0355,1011.13,11111222 
WAVCIS,ioos:station:WAVCIS:CSI16:1,2010-07-05T03:00:00Z,29.4012,-89.0355,1011.15,11111222 
WAVCIS,ioos:station:WAVCIS:CSI16:1,2010-07-05T04:00:00Z,29.4012,-89.0355,1011.1,11111222 
WAVCIS,ioos:station:WAVCIS:CSI16:1,2010-07-05T05:00:00Z,29.4012,-89.0355,1011.36,11111222 
WAVCIS,ioos:station:WAVCIS:CSI16:1,2010-07-05T06:00:00Z,29.4012,-89.0355,1011.0,11111222 
WAVCIS,ioos:station:WAVCIS:CSI16:1,2010-07-05T07:00:00Z,29.4012,-89.0355,1010.56,11111222 
WAVCIS,ioos:station:WAVCIS:CSI16:1,2010-07-05T08:00:00Z,29.4012,-89.0355,1010.32,11111222 
WAVCIS,ioos:station:WAVCIS:CSI16:1,2010-07-05T09:00:00Z,29.4012,-89.0355,1010.35,11111222 
WAVCIS,ioos:station:WAVCIS:CSI16:1,2010-07-05T10:00:00Z,29.4012,-89.0355,1010.2,11111222 
WAVCIS,ioos:station:WAVCIS:CSI16:1,2010-07-05T11:00:00Z,29.4012,-89.0355,1010.11,11111222 
WAVCIS,ioos:station:WAVCIS:CSI16:1,2010-07-05T12:00:00Z,29.4012,-89.0355,1010.56,11111222 
WAVCIS,ioos:station:WAVCIS:CSI16:1,2010-07-05T13:00:00Z,29.4012,-89.0355,1010.4,11111222 
WAVCIS,ioos:station:WAVCIS:CSI16:1,2010-07-05T14:00:00Z,29.4012,-89.0355,1011.2,11111222 
WAVCIS,ioos:station:WAVCIS:CSI16:1,2010-07-05T15:00:00Z,29.4012,-89.0355,1011.25,11111222 
WAVCIS,ioos:station:WAVCIS:CSI16:1,2010-07-05T16:00:00Z,29.4012,-89.0355,1011.59,11111222 
WAVCIS,ioos:station:WAVCIS:CSI16:1,2010-07-05T17:00:00Z,29.4012,-89.0355,1010.92,11111222 
WAVCIS,ioos:station:WAVCIS:CSI16:1,2010-07-05T18:00:00Z,29.4012,-89.0355,1010.81,11111222 
WAVCIS,ioos:station:WAVCIS:CSI16:1,2010-07-05T19:00:00Z,29.4012,-89.0355,1010.94,11111222 
WAVCIS,ioos:station:WAVCIS:CSI16:1,2010-07-05T20:00:00Z,29.4012,-89.0355,1011.32,11111222 
WAVCIS,ioos:station:WAVCIS:CSI16:1,2010-07-05T21:00:00Z,29.4012,-89.0355,1009.89,11111222 
WAVCIS,ioos:station:WAVCIS:CSI16:1,2010-07-05T22:00:00Z,29.4012,-89.0355,1009.61,11111222 
WAVCIS,ioos:station:WAVCIS:CSI16:1,2010-07-05T23:00:00Z,29.4012,-89.0355,1008.99,11111222 
WAVCIS,ioos:station:WAVCIS:CSI16:1,2010-07-06T00:00:00Z,29.4012,-89.0355,1009.82,11111222 
WAVCIS,ioos:station:WAVCIS:CSI16:1,2010-07-06T01:00:00Z,29.4012,-89.0355,1009.93,11111222 
WAVCIS,ioos:station:WAVCIS:CSI16:1,2010-07-06T02:00:00Z,29.4012,-89.0355,1010.23,11111222 
WAVCIS,ioos:station:WAVCIS:CSI16:1,2010-07-06T03:00:00Z,29.4012,-89.0355,1010.51,11111222 
WAVCIS,ioos:station:WAVCIS:CSI16:1,2010-07-06T04:00:00Z,29.4012,-89.0355,1010.41,11111222 
WAVCIS,ioos:station:WAVCIS:CSI16:1,2010-07-06T05:00:00Z,29.4012,-89.0355,1010.47,11111222 
WAVCIS,ioos:station:WAVCIS:CSI16:1,2010-07-06T06:00:00Z,29.4012,-89.0355,1010.37,11111222 
WAVCIS,ioos:station:WAVCIS:CSI16:1,2010-07-06T07:00:00Z,29.4012,-89.0355,1009.64,11111222 
WAVCIS,ioos:station:WAVCIS:CSI16:1,2010-07-06T08:00:00Z,29.4012,-89.0355,1009.61,11111222 
WAVCIS,ioos:station:WAVCIS:CSI16:1,2010-07-06T09:00:00Z,29.4012,-89.0355,1009.63,11111222 
WAVCIS,ioos:station:WAVCIS:CSI16:1,2010-07-06T10:00:00Z,29.4012,-89.0355,1009.85,11111222 
WAVCIS,ioos:station:WAVCIS:CSI16:1,2010-07-06T11:00:00Z,29.4012,-89.0355,1010.2,11111222 
WAVCIS,ioos:station:WAVCIS:CSI16:1,2010-07-06T12:00:00Z,29.4012,-89.0355,1010.51,11111222 
WAVCIS,ioos:station:WAVCIS:CSI16:1,2010-07-06T13:00:00Z,29.4012,-89.0355,1010.8,11111222 
WAVCIS,ioos:station:WAVCIS:CSI16:1,2010-07-06T14:00:00Z,29.4012,-89.0355,1011.22,11111222 
WAVCIS,ioos:station:WAVCIS:CSI16:1,2010-07-06T15:00:00Z,29.4012,-89.0355,1011.02,11111222 
WAVCIS,ioos:station:WAVCIS:CSI16:1,2010-07-06T16:00:00Z,29.4012,-89.0355,1010.83,11111222 
WAVCIS,ioos:station:WAVCIS:CSI16:1,2010-07-06T17:00:00Z,29.4012,-89.0355,1011.38,11111222 
WAVCIS,ioos:station:WAVCIS:CSI16:1,2010-07-06T18:00:00Z,29.4012,-89.0355,1010.99,11111222 
WAVCIS,ioos:station:WAVCIS:CSI16:1,2010-07-06T19:00:00Z,29.4012,-89.0355,1011.31,11111222 
WAVCIS,ioos:station:WAVCIS:CSI16:1,2010-07-06T20:00:00Z,29.4012,-89.0355,1011.43,11111222 
WAVCIS,ioos:station:WAVCIS:CSI16:1,2010-07-06T21:00:00Z,29.4012,-89.0355,1011.65,11111222 
WAVCIS,ioos:station:WAVCIS:CSI16:1,2010-07-06T22:00:00Z,29.4012,-89.0355,1011.01,11111222 
WAVCIS,ioos:station:WAVCIS:CSI16:1,2010-07-06T23:00:00Z,29.4012,-89.0355,1010.28,11111222 
WAVCIS,ioos:station:WAVCIS:CSI16:1,2010-07-07T00:00:00Z,29.4012,-89.0355,1010.18,11111222 
WAVCIS,ioos:station:WAVCIS:CSI16:1,2010-07-07T01:00:00Z,29.4012,-89.0355,1010.65,11111222 
WAVCIS,ioos:station:WAVCIS:CSI16:1,2010-07-07T02:00:00Z,29.4012,-89.0355,1011.34,11111222 
WAVCIS,ioos:station:WAVCIS:CSI16:1,2010-07-07T03:00:00Z,29.4012,-89.0355,1011.74,11111222 
WAVCIS,ioos:station:WAVCIS:CSI16:1,2010-07-07T04:00:00Z,29.4012,-89.0355,1011.59,11111222 
WAVCIS,ioos:station:WAVCIS:CSI16:1,2010-07-07T05:00:00Z,29.4012,-89.0355,1011.81,11111222 
WAVCIS,ioos:station:WAVCIS:CSI16:1,2010-07-07T06:00:00Z,29.4012,-89.0355,1011.97,11111222 
WAVCIS,ioos:station:WAVCIS:CSI16:1,2010-07-07T07:00:00Z,29.4012,-89.0355,1011.69,11111222 
WAVCIS,ioos:station:WAVCIS:CSI16:1,2010-07-07T08:00:00Z,29.4012,-89.0355,1011.72,11111222 
WAVCIS,ioos:station:WAVCIS:CSI16:1,2010-07-07T09:00:00Z,29.4012,-89.0355,1011.66,11111222 
WAVCIS,ioos:station:WAVCIS:CSI16:1,2010-07-07T10:00:00Z,29.4012,-89.0355,1011.88,11111222 
WAVCIS,ioos:station:WAVCIS:CSI16:1,2010-07-07T11:00:00Z,29.4012,-89.0355,1012.16,11111222 
WAVCIS,ioos:station:WAVCIS:CSI16:1,2010-07-07T12:00:00Z,29.4012,-89.0355,1012.47,11111222 
WAVCIS,ioos:station:WAVCIS:CSI16:1,2010-07-07T13:00:00Z,29.4012,-89.0355,1013.43,11111222 
WAVCIS,ioos:station:WAVCIS:CSI16:1,2010-07-07T14:00:00Z,29.4012,-89.0355,1013.69,11111222 
WAVCIS,ioos:station:WAVCIS:CSI16:1,2010-07-07T15:00:00Z,29.4012,-89.0355,1013.94,11111222 
WAVCIS,ioos:station:WAVCIS:CSI16:1,2010-07-07T16:00:00Z,29.4012,-89.0355,1014.4,11111222 
WAVCIS,ioos:station:WAVCIS:CSI16:1,2010-07-07T17:00:00Z,29.4012,-89.0355,1014.77,11111222 
WAVCIS,ioos:station:WAVCIS:CSI16:1,2010-07-07T18:00:00Z,29.4012,-89.0355,1014.6,11111222 
WAVCIS,ioos:station:WAVCIS:CSI16:1,2010-07-07T19:00:00Z,29.4012,-89.0355,1014.35,11111222 
WAVCIS,ioos:station:WAVCIS:CSI16:1,2010-07-07T20:00:00Z,29.4012,-89.0355,1014.31,11111222 
WAVCIS,ioos:station:WAVCIS:CSI16:1,2010-07-07T21:00:00Z,29.4012,-89.0355,1014.07,11111222 
WAVCIS,ioos:station:WAVCIS:CSI16:1,2010-07-07T22:00:00Z,29.4012,-89.0355,1013.65,11111222 
WAVCIS,ioos:station:WAVCIS:CSI16:1,2010-07-07T23:00:00Z,29.4012,-89.0355,1013.28,11111222 
WAVCIS,ioos:station:WAVCIS:CSI16:1,2010-07-08T00:00:00Z,29.4012,-89.0355,1013.04,11111222 
WAVCIS,ioos:station:WAVCIS:CSI16:1,2010-07-08T01:00:00Z,29.4012,-89.0355,1013.27,11111222 
WAVCIS,ioos:station:WAVCIS:CSI16:1,2010-07-08T02:00:00Z,29.4012,-89.0355,1013.57,11111222 
WAVCIS,ioos:station:WAVCIS:CSI16:1,2010-07-08T03:00:00Z,29.4012,-89.0355,1013.97,11111222 
WAVCIS,ioos:station:WAVCIS:CSI16:1,2010-07-08T04:00:00Z,29.4012,-89.0355,1014.03,11111222 
WAVCIS,ioos:station:WAVCIS:CSI16:1,2010-07-08T05:00:00Z,29.4012,-89.0355,1014.06,11111222 
WAVCIS,ioos:station:WAVCIS:CSI16:1,2010-07-08T06:00:00Z,29.4012,-89.0355,1013.74,11111222 
WAVCIS,ioos:station:WAVCIS:CSI16:1,2010-07-08T07:00:00Z,29.4012,-89.0355,1013.33,11111222 
WAVCIS,ioos:station:WAVCIS:CSI16:1,2010-07-08T08:00:00Z,29.4012,-89.0355,1013.13,11111222 
WAVCIS,ioos:station:WAVCIS:CSI16:1,2010-07-08T09:00:00Z,29.4012,-89.0355,1013.22,11111222 
WAVCIS,ioos:station:WAVCIS:CSI16:1,2010-07-08T10:00:00Z,29.4012,-89.0355,1013.19,11111222 
WAVCIS,ioos:station:WAVCIS:CSI16:1,2010-07-08T11:00:00Z,29.4012,-89.0355,1013.4,11111222 
WAVCIS,ioos:station:WAVCIS:CSI16:1,2010-07-08T12:00:00Z,29.4012,-89.0355,1013.78,11111222 
WAVCIS,ioos:station:WAVCIS:CSI16:1,2010-07-08T13:00:00Z,29.4012,-89.0355,1014.05,11111222 
WAVCIS,ioos:station:WAVCIS:CSI16:1,2010-07-08T14:00:00Z,29.4012,-89.0355,1014.35,11111222 
WAVCIS,ioos:station:WAVCIS:CSI16:1,2010-07-08T15:00:00Z,29.4012,-89.0355,1014.36,11111222 
WAVCIS,ioos:station:WAVCIS:CSI16:1,2010-07-08T16:00:00Z,29.4012,-89.0355,1014.79,11111222 
WAVCIS,ioos:station:WAVCIS:CSI16:1,2010-07-08T17:00:00Z,29.4012,-89.0355,1014.92,11111222 
WAVCIS,ioos:station:WAVCIS:CSI16:1,2010-07-08T18:00:00Z,29.4012,-89.0355,1015.1,11111222 
WAVCIS,ioos:station:WAVCIS:CSI16:1,2010-07-08T19:00:00Z,29.4012,-89.0355,1014.67,11111222 
WAVCIS,ioos:station:WAVCIS:CSI16:1,2010-07-08T20:00:00Z,29.4012,-89.0355,1014.51,11111222 
WAVCIS,ioos:station:WAVCIS:CSI16:1,2010-07-08T21:00:00Z,29.4012,-89.0355,1013.75,11111222 
WAVCIS,ioos:station:WAVCIS:CSI16:1,2010-07-08T22:00:00Z,29.4012,-89.0355,1013.16,11111222 
WAVCIS,ioos:station:WAVCIS:CSI16:1,2010-07-08T23:00:00Z,29.4012,-89.0355,1012.66,11111222 
WAVCIS,ioos:station:WAVCIS:CSI16:1,2010-07-09T00:00:00Z,29.4012,-89.0355,1012.5,11111222 
WAVCIS,ioos:station:WAVCIS:CSI16:1,2010-07-09T01:00:00Z,29.4012,-89.0355,1012.73,11111222 
WAVCIS,ioos:station:WAVCIS:CSI16:1,2010-07-09T02:00:00Z,29.4012,-89.0355,1012.83,11111222 
WAVCIS,ioos:station:WAVCIS:CSI16:1,2010-07-09T03:00:00Z,29.4012,-89.0355,1013.46,11111222 
WAVCIS,ioos:station:WAVCIS:CSI16:1,2010-07-09T04:00:00Z,29.4012,-89.0355,1014.01,11111222 
WAVCIS,ioos:station:WAVCIS:CSI16:1,2010-07-09T05:00:00Z,29.4012,-89.0355,1014.46,11111222 
WAVCIS,ioos:station:WAVCIS:CSI16:1,2010-07-09T06:00:00Z,29.4012,-89.0355,1014.42,11111222 
WAVCIS,ioos:station:WAVCIS:CSI16:1,2010-07-09T07:00:00Z,29.4012,-89.0355,1014.07,11111222 
WAVCIS,ioos:station:WAVCIS:CSI16:1,2010-07-09T08:00:00Z,29.4012,-89.0355,1013.78,11111222 
WAVCIS,ioos:station:WAVCIS:CSI16:1,2010-07-09T09:00:00Z,29.4012,-89.0355,1013.49,11111222 
WAVCIS,ioos:station:WAVCIS:CSI16:1,2010-07-09T10:00:00Z,29.4012,-89.0355,1013.67,11111222 
WAVCIS,ioos:station:WAVCIS:CSI16:1,2010-07-09T11:00:00Z,29.4012,-89.0355,1014.01,11111222 
WAVCIS,ioos:station:WAVCIS:CSI16:1,2010-07-09T12:00:00Z,29.4012,-89.0355,1014.1,11111222 
WAVCIS,ioos:station:WAVCIS:CSI16:1,2010-07-09T13:00:00Z,29.4012,-89.0355,1014.15,11111222 
WAVCIS,ioos:station:WAVCIS:CSI16:1,2010-07-09T14:00:00Z,29.4012,-89.0355,1014.27,11111222 
WAVCIS,ioos:station:WAVCIS:CSI16:1,2010-07-09T15:00:00Z,29.4012,-89.0355,1014.36,11111222 
WAVCIS,ioos:station:WAVCIS:CSI16:1,2010-07-09T16:00:00Z,29.4012,-89.0355,1014.52,11111222 
WAVCIS,ioos:station:WAVCIS:CSI16:1,2010-07-09T17:00:00Z,29.4012,-89.0355,1014.69,11111222 
WAVCIS,ioos:station:WAVCIS:CSI16:1,2010-07-09T18:00:00Z,29.4012,-89.0355,1014.74,11111222 
WAVCIS,ioos:station:WAVCIS:CSI16:1,2010-07-09T19:00:00Z,29.4012,-89.0355,1014.39,11111222 
WAVCIS,ioos:station:WAVCIS:CSI16:1,2010-07-09T20:00:00Z,29.4012,-89.0355,1013.71,11111222 
WAVCIS,ioos:station:WAVCIS:CSI16:1,2010-07-09T21:00:00Z,29.4012,-89.0355,1012.82,11111222 
WAVCIS,ioos:station:WAVCIS:CSI16:1,2010-07-09T22:00:00Z,29.4012,-89.0355,1012.58,11111222 
WAVCIS,ioos:station:WAVCIS:CSI16:1,2010-07-09T23:00:00Z,29.4012,-89.0355,1011.78,11111222 
WAVCIS,ioos:station:WAVCIS:CSI16:1,2010-07-10T00:00:00Z,29.4012,-89.0355,1012.44,11111222 
WAVCIS,ioos:station:WAVCIS:CSI16:1,2010-07-10T01:00:00Z,29.4012,-89.0355,1012.78,11111222 
WAVCIS,ioos:station:WAVCIS:CSI16:1,2010-07-10T02:00:00Z,29.4012,-89.0355,1013.1,11111222 
WAVCIS,ioos:station:WAVCIS:CSI16:1,2010-07-10T03:00:00Z,29.4012,-89.0355,1013.87,11111222 
WAVCIS,ioos:station:WAVCIS:CSI16:1,2010-07-10T04:00:00Z,29.4012,-89.0355,1014.31,11111222 
WAVCIS,ioos:station:WAVCIS:CSI16:1,2010-07-10T05:00:00Z,29.4012,-89.0355,1014.08,11111222 
WAVCIS,ioos:station:WAVCIS:CSI16:1,2010-07-10T06:00:00Z,29.4012,-89.0355,1013.69,11111222 
WAVCIS,ioos:station:WAVCIS:CSI16:1,2010-07-10T07:00:00Z,29.4012,-89.0355,1013.18,11111222 
WAVCIS,ioos:station:WAVCIS:CSI16:1,2010-07-10T08:00:00Z,29.4012,-89.0355,1012.99,11111222 
WAVCIS,ioos:station:WAVCIS:CSI16:1,2010-07-10T09:00:00Z,29.4012,-89.0355,1012.65,11111222 
WAVCIS,ioos:station:WAVCIS:CSI16:1,2010-07-10T10:00:00Z,29.4012,-89.0355,1012.78,11111222 
WAVCIS,ioos:station:WAVCIS:CSI16:1,2010-07-10T11:00:00Z,29.4012,-89.0355,1012.99,11111222 
WAVCIS,ioos:station:WAVCIS:CSI16:1,2010-07-10T12:00:00Z,29.4012,-89.0355,1013.19,11111222 
WAVCIS,ioos:station:WAVCIS:CSI16:1,2010-07-10T13:00:00Z,29.4012,-89.0355,1013.93,11111222 
WAVCIS,ioos:station:WAVCIS:CSI16:1,2010-07-10T14:00:00Z,29.4012,-89.0355,1014.62,11111222 
WAVCIS,ioos:station:WAVCIS:CSI16:1,2010-07-10T15:00:00Z,29.4012,-89.0355,1014.6,11111222 
WAVCIS,ioos:station:WAVCIS:CSI16:1,2010-07-10T16:00:00Z,29.4012,-89.0355,1014.8,11111222 
WAVCIS,ioos:station:WAVCIS:CSI16:1,2010-07-10T17:00:00Z,29.4012,-89.0355,1014.8,11111222 
WAVCIS,ioos:station:WAVCIS:CSI16:1,2010-07-10T18:00:00Z,29.4012,-89.0355,1014.56,11111222 
WAVCIS,ioos:station:WAVCIS:CSI16:1,2010-07-10T19:00:00Z,29.4012,-89.0355,1014.04,11111222 
WAVCIS,ioos:station:WAVCIS:CSI16:1,2010-07-10T20:00:00Z,29.4012,-89.0355,1013.52,11111222 
WAVCIS,ioos:station:WAVCIS:CSI16:1,2010-07-10T21:00:00Z,29.4012,-89.0355,1012.83,11111222 
WAVCIS,ioos:station:WAVCIS:CSI16:1,2010-07-10T22:00:00Z,29.4012,-89.0355,1012.49,11111222 
WAVCIS,ioos:station:WAVCIS:CSI16:1,2010-07-10T23:00:00Z,29.4012,-89.0355,1012.43,11111222 
WAVCIS,ioos:station:WAVCIS:CSI16:1,2010-07-11T00:00:00Z,29.4012,-89.0355,1012.69,11111222 
WAVCIS,ioos:station:WAVCIS:CSI16:1,2010-07-11T01:00:00Z,29.4012,-89.0355,1012.81,11111222 
WAVCIS,ioos:station:WAVCIS:CSI16:1,2010-07-11T02:00:00Z,29.4012,-89.0355,1013.02,11111222 
WAVCIS,ioos:station:WAVCIS:CSI16:1,2010-07-11T03:00:00Z,29.4012,-89.0355,1013.47,11111222 
WAVCIS,ioos:station:WAVCIS:CSI16:1,2010-07-11T04:00:00Z,29.4012,-89.0355,1013.57,11111222 
WAVCIS,ioos:station:WAVCIS:CSI16:1,2010-07-11T05:00:00Z,29.4012,-89.0355,1013.25,11111222 
WAVCIS,ioos:station:WAVCIS:CSI16:1,2010-07-11T06:00:00Z,29.4012,-89.0355,1012.51,11111222 
WAVCIS,ioos:station:WAVCIS:CSI16:1,2010-07-11T07:00:00Z,29.4012,-89.0355,1011.9,11111222 
WAVCIS,ioos:station:WAVCIS:CSI16:1,2010-07-11T08:00:00Z,29.4012,-89.0355,1011.8,11111222 
WAVCIS,ioos:station:WAVCIS:CSI16:1,2010-07-11T09:00:00Z,29.4012,-89.0355,1011.89,11111222 
WAVCIS,ioos:station:WAVCIS:CSI16:1,2010-07-11T10:00:00Z,29.4012,-89.0355,1011.95,11111222 
WAVCIS,ioos:station:WAVCIS:CSI16:1,2010-07-11T11:00:00Z,29.4012,-89.0355,1012.05,11111222 
WAVCIS,ioos:station:WAVCIS:CSI16:1,2010-07-11T12:00:00Z,29.4012,-89.0355,1012.64,11111222 
WAVCIS,ioos:station:WAVCIS:CSI16:1,2010-07-11T13:00:00Z,29.4012,-89.0355,1013.05,11111222 
WAVCIS,ioos:station:WAVCIS:CSI16:1,2010-07-11T14:00:00Z,29.4012,-89.0355,1013.51,11111222 
WAVCIS,ioos:station:WAVCIS:CSI16:1,2010-07-11T15:00:00Z,29.4012,-89.0355,1013.46,11111222 
WAVCIS,ioos:station:WAVCIS:CSI16:1,2010-07-11T16:00:00Z,29.4012,-89.0355,1014.06,11111222 
WAVCIS,ioos:station:WAVCIS:CSI16:1,2010-07-11T17:00:00Z,29.4012,-89.0355,1014.31,11111222 
WAVCIS,ioos:station:WAVCIS:CSI16:1,2010-07-11T18:00:00Z,29.4012,-89.0355,1013.78,11111222 
WAVCIS,ioos:station:WAVCIS:CSI16:1,2010-07-11T19:00:00Z,29.4012,-89.0355,1013.31,11111222 
WAVCIS,ioos:station:WAVCIS:CSI16:1,2010-07-11T20:00:00Z,29.4012,-89.0355,1012.58,11111222 
WAVCIS,ioos:station:WAVCIS:CSI16:1,2010-07-11T21:00:00Z,29.4012,-89.0355,1011.79,11111222 
WAVCIS,ioos:station:WAVCIS:CSI16:1,2010-07-11T22:00:00Z,29.4012,-89.0355,1011.47,11111222 